Location: Brantley
(31.5822°N, 86.2569°W)
Time: 00:19:45
(UTC+00:00)

Vanguard 3 - Pass Details

Date: 18 February 2026
Orbit: 507 x 3205 km, 33.4° (Epoch: 9 March)

Event Time Altitude Azimuth Distance (km) Brightness Sun altitude
Rises 19:37:55 0° 225° (SW) 6,756 12.7 40.9°
Reaches altitude 10° 19:43:11 10° 220° (SW) 5,422 12.5 40.3°
Maximum altitude 19:56:51 44° 155° (SSE) 2,421 10.3 38.6°
Drops below altitude 10° 20:05:03 10° 86° (E) 3,314 10.0 37.5°
Sets 20:07:28 0° 80° (E) 3,995 10.3 37.1°
